This is the latest recevied weather packets stored in our database for station/object DM3FAM-10. If no packets are shown the sender has not sent any weather packets the latest 10 day(s).
| Time | Temp. | Humidity | Pressure | Rain* | Wind** | Luminosity | Snow |
|---|---|---|---|---|---|---|---|
| 1777663601 | 10.56° C | 89% | 973.6 hPa | - | - | - | - |
| 1777662701 | 11.67° C | 83% | 973.7 hPa | - | - | - | - |
| 1777661800 | 12.22° C | 83% | 973.6 hPa | - | - | - | - |
| 1777660900 | 13.33° C | 75% | 973.4 hPa | - | - | - | - |
| 1777660000 | 13.89° C | 73% | 973.3 hPa | - | - | - | - |
| 1777659100 | 15° C | 70% | 973.1 hPa | - | - | - | - |
| 1777658200 | 15.56° C | 65% | 972.9 hPa | - | - | - | - |
| 1777657300 | 16.67° C | 62% | 972.8 hPa | - | - | - | - |
| 1777656400 | 17.78° C | 58% | 972.8 hPa | - | - | - | - |
| 1777655500 | 18.89° C | 53% | 972.6 hPa | - | - | - | - |
| 1777654600 | 20° C | 44% | 972.7 hPa | - | - | - | - |
| 1777653700 | 20.56° C | 43% | 972.7 hPa | - | - | - | - |
| 1777652800 | 23.89° C | 33% | 972.8 hPa | - | - | - | - |
| 1777651900 | 25.56° C | 30% | 972.7 hPa | - | - | - | - |
| 1777651000 | 27.22° C | 26% | 972.6 hPa | - | - | - | - |
| 1777650100 | 30° C | 22% | 972.8 hPa | - | - | - | - |
| 1777649200 | 30° C | 22% | 972.9 hPa | - | - | - | - |
| 1777648299 | 31.67° C | 19% | 973.1 hPa | - | - | - | - |
| 1777647399 | 31.67° C | 21% | 973.1 hPa | - | - | - | - |
| 1777646499 | 33.89° C | 19% | 973.2 hPa | - | - | - | - |
| 1777645599 | 36.11° C | 17% | 973.3 hPa | - | - | - | - |
| 1777644699 | 36.11° C | 15% | 973.4 hPa | - | - | - | - |
| 1777643799 | 38.33° C | 14% | 973.5 hPa | - | - | - | - |
| 1777642899 | 35.56° C | 16% | 973.7 hPa | - | - | - | - |
| 1777641999 | 39.44° C | 13% | 973.9 hPa | - | - | - | - |
* Rain since midnight (hover to see other rain measurements)
** Current wind speed in m/s (hover to see current wind gust speed)